Location: Boston
(42.3580°N, 71.0600°W)
Time: 19:03:39
(UTC-04:00)

N. Korean satellite - Pass Details

Date: 09 October 2017
Orbit: 459 x 517 km, 97.2° (Epoch: 22 October)

Event Time Altitude Azimuth Distance (km) Brightness Sun altitude
Rises 19:46:34 0° 207° (SSW) 2,571 10.5 -18.3°
Reaches altitude 10° 19:49:22 10° 231° (SW) 1,682 9.9 -18.8°
Maximum altitude 19:51:31 15° 267° (W) 1,391 9.9 -19.2°
Drops below altitude 10° 19:53:39 10° 304° (NW) 1,671 10.2 -19.6°
Sets 19:56:26 0° 329° (NNW) 2,543 10.8 -20.1°
